Booneville, Arkansas, United States (72927)
Lat: 35.14N, Lon: 93.92W
Wx Zone: ARZ030
Local Info
Past Weather Observations for Thursday, August 18, 2016

NOTE: This archive is for the closest National Weather Service station to Booneville. Information may differ from the station used for current weather conditions.

Click here for Long-term Archive

Time Weather Temperature Dewpoint Humidity Pressure Winds Precip Visibility
23:53
Partly Cloudy
73°F / 23°C 72°F / 22°C 94% 30.01 in
(1016 mb)
E 4.6 mph
(E 7 kph)
- 10SM
22:53
Clear
75°F / 24°C 72°F / 22°C 89% 29.98 in
(1015 mb)
Calm - 10SM
21:53
Clear
75°F / 24°C 72°F / 22°C 89% 29.98 in
(1015 mb)
Calm - 10SM
20:53
Clear
75°F / 24°C 72°F / 22°C 89% 30.01 in
(1016 mb)
Calm - 10SM
19:53
Clear
75°F / 24°C 72°F / 22°C 89% 29.98 in
(1015 mb)
SSE 6.9 mph
(SSE 11 kph)
- 10SM
18:53
Partly Cloudy
79°F / 26°C 72°F / 22°C 79% 30.01 in
(1016 mb)
SE 5.8 mph
(SE 9 kph)
- 10SM
18:29
Mostly Cloudy
79°F / 26°C 72°F / 22°C 79% 30.01 in
(1016 mb)
SE 6.9 mph
(SE 11 kph)
- 10SM
18:20
Mostly Cloudy
79°F / 26°C 72°F / 22°C 79% 30.01 in
(1016 mb)
SSE 6.9 mph
(SSE 11 kph)
- 10SM
17:53
Partly Cloudy
79°F / 26°C 72°F / 22°C 79% 30.01 in
(1016 mb)
SE 5.8 mph
(SE 9 kph)
- 10SM
17:27
Partly Cloudy
79°F / 26°C 72°F / 22°C 79% 30.01 in
(1016 mb)
SSE 8.1 mph
(SSE 13 kph)
- 10SM
17:05
Mostly Cloudy
81°F / 27°C 72°F / 22°C 74% 30.01 in
(1016 mb)
SE 8.1 mph
(SE 13 kph)
- 10SM
16:53
Partly Cloudy
81°F / 27°C 72°F / 22°C 74% 30.01 in
(1016 mb)
SE 5.8 mph
(SE 9 kph)
- 10SM
15:53
Overcast
81°F / 27°C 72°F / 22°C 74% 30.01 in
(1016 mb)
SSE 6.9 mph
(SSE 11 kph)
- 10SM
15:45
Overcast
81°F / 27°C 72°F / 22°C 74% 30.01 in
(1016 mb)
SSE 5.8 mph
(SSE 9 kph)
- 10SM
14:53
Mostly Cloudy
82°F / 28°C 72°F / 22°C 70% 30.01 in
(1016 mb)
S 6.9 mph
(S 11 kph)
- 10SM
13:53
Mostly Cloudy
81°F / 27°C 72°F / 22°C 74% 30.04 in
(1017 mb)
SE 9.2 mph
(SE 15 kph)
- 10SM
13:07
Overcast
79°F / 26°C 72°F / 22°C 79% 30.06 in
(1018 mb)
SSE 6.9 mph
(SSE 11 kph)
- 10SM
12:53
Overcast
79°F / 26°C 72°F / 22°C 79% 30.06 in
(1018 mb)
SSE 8.1 mph
(SSE 13 kph)
- 10SM
12:45
Overcast
79°F / 26°C 72°F / 22°C 79% 30.06 in
(1018 mb)
Variable 5.8 mph
(Variable 9 kph)
- 10SM
11:53
Overcast
75°F / 24°C 73°F / 23°C 94% 30.06 in
(1018 mb)
Variable 3.5 mph
(Variable 6 kph)
0.14 in
(3.56 mm)
10SM
11:34
Overcast
Rain
75°F / 24°C 73°F / 23°C 94% 30.09 in
(1019 mb)
SE 5.8 mph
(SE 9 kph)
0.11 in
(2.79 mm)
2 1/2SM
11:27
Overcast
Heavy Rain
75°F / 24°C 73°F / 23°C 94% 30.09 in
(1019 mb)
SE 4.6 mph
(SE 7 kph)
0.06 in
(1.52 mm)
2 1/2SM
11:15
Overcast
Light Rain
75°F / 24°C 72°F / 22°C 89% 30.09 in
(1019 mb)
SSE 6.9 mph
(SSE 11 kph)
0.00 in
(0.00 mm)
2 1/2SM
10:53
Overcast
Light Rain
77°F / 25°C 72°F / 22°C 83% 30.09 in
(1019 mb)
SSE 3.5 mph
(SSE 6 kph)
0.01 in
(0.25 mm)
5SM
10:39
Overcast
Light Rain
75°F / 24°C 72°F / 22°C 89% 30.09 in
(1019 mb)
SSE 4.6 mph
(SSE 7 kph)
0.00 in
(0.00 mm)
5SM
09:53
Overcast
75°F / 24°C 73°F / 23°C 94% 30.09 in
(1019 mb)
ESE 4.6 mph
(ESE 7 kph)
- 10SM
09:26
Overcast
75°F / 24°C 72°F / 22°C 89% 30.09 in
(1019 mb)
E 4.6 mph
(E 7 kph)
- 10SM
09:17
Overcast
75°F / 24°C 72°F / 22°C 89% 30.09 in
(1019 mb)
SE 3.5 mph
(SE 6 kph)
- 10SM
08:53
Overcast
75°F / 24°C 72°F / 22°C 89% 30.09 in
(1019 mb)
E 4.6 mph
(E 7 kph)
0.04 in
(1.02 mm)
10SM
08:50
Overcast
75°F / 24°C 72°F / 22°C 89% 30.09 in
(1019 mb)
E 4.6 mph
(E 7 kph)
0.04 in
(1.02 mm)
10SM
08:46
Overcast
75°F / 24°C 72°F / 22°C 89% 30.09 in
(1019 mb)
ESE 4.6 mph
(ESE 7 kph)
0.04 in
(1.02 mm)
10SM
08:36
Overcast
Light Rain
75°F / 24°C 72°F / 22°C 89% 30.09 in
(1019 mb)
E 4.6 mph
(E 7 kph)
0.04 in
(1.02 mm)
9SM
08:01
Overcast
Rain
75°F / 24°C 72°F / 22°C 89% 30.09 in
(1019 mb)
SE 4.6 mph
(SE 7 kph)
0.02 in
(0.51 mm)
2 1/2SM
07:53
Overcast
Light Rain
75°F / 24°C 72°F / 22°C 89% 30.09 in
(1019 mb)
Calm 0.00 in
(0.00 mm)
3SM
07:47
Overcast
75°F / 24°C 72°F / 22°C 89% 30.09 in
(1019 mb)
Calm - 10SM
07:11
Overcast
73°F / 23°C 72°F / 22°C 94% 30.09 in
(1019 mb)
SE 4.6 mph
(SE 7 kph)
- 10SM
06:53
Overcast
73°F / 23°C 72°F / 22°C 94% 30.09 in
(1019 mb)
E 3.5 mph
(E 6 kph)
0.00 in
(0.00 mm)
9SM
05:53
Overcast
73°F / 23°C 72°F / 22°C 94% 30.09 in
(1019 mb)
ENE 3.5 mph
(ENE 6 kph)
0.03 in
(0.76 mm)
10SM
04:53
Overcast
Light Rain
73°F / 23°C 70°F / 21°C 89% 30.09 in
(1019 mb)
Calm 0.47 in
(11.94 mm)
7SM
04:37
Overcast
Heavy Rain
73°F / 23°C 70°F / 21°C 89% 30.09 in
(1019 mb)
Calm 0.39 in
(9.91 mm)
3SM
04:26
Overcast
Heavy Rain
73°F / 23°C 70°F / 21°C 89% 30.09 in
(1019 mb)
S 6.9 mph
(S 11 kph)
0.02 in
(0.51 mm)
1 3/4SM
04:23
Overcast
Light Rain
73°F / 23°C 70°F / 21°C 89% 30.09 in
(1019 mb)
SW 4.6 mph
(SW 7 kph)
0.00 in
(0.00 mm)
4SM
03:53
Overcast
73°F / 23°C 70°F / 21°C 89% 30.06 in
(1018 mb)
ENE 3.5 mph
(ENE 6 kph)
- 10SM
02:53
Mostly Cloudy
73°F / 23°C 70°F / 21°C 89% 30.09 in
(1019 mb)
E 4.6 mph
(E 7 kph)
- 10SM
02:22
Mostly Cloudy
73°F / 23°C 72°F / 22°C 94% 30.09 in
(1019 mb)
E 3.5 mph
(E 6 kph)
- 10SM
02:13
Mostly Cloudy
73°F / 23°C 72°F / 22°C 94% 30.09 in
(1019 mb)
E 4.6 mph
(E 7 kph)
- 10SM
01:53
Overcast
73°F / 23°C 72°F / 22°C 94% 30.09 in
(1019 mb)
E 3.5 mph
(E 6 kph)
- 10SM
00:53
Mostly Cloudy
73°F / 23°C 70°F / 21°C 89% 30.09 in
(1019 mb)
Calm - 10SM
Time Weather Temperature Dewpoint Humidity Pressure Winds Precip Visibility


Weather for websites

WeatherForYou.com, LLC is not responsible for any damages or problems caused by this service. Current weather conditions are obtained from the closest station including government and personal stations which may have varying degrees of accuracy. Weather forecasts are derived from the NOAA NDFD. Like all things, this site belongs to Jesus Christ... He just trusts us to maintain it. If you have any questions or comments email webmaster@weatherforyou.com

Copyright © 2016, WeatherForYou.com LLC. All rights reserved.